TimePDT,TemperatureF,Dew PointF,Humidity,Sea Level PressureIn,VisibilityMPH,Wind Direction,Wind SpeedMPH,Gust SpeedMPH,PrecipitationIn,Events,Conditions,WindDirDegrees,DateUTC
12:53 AM,33.1,21.9,64,30.00,10.0,Calm,Calm,-,N/A,,Clear,0,2012-10-08 07:53:00
1:53 AM,30.9,21.9,69,30.01,10.0,Calm,Calm,-,N/A,,Clear,0,2012-10-08 08:53:00
2:53 AM,33.1,23.0,66,29.99,10.0,Calm,Calm,-,N/A,,Clear,0,2012-10-08 09:53:00
3:53 AM,30.9,24.1,76,29.99,10.0,Calm,Calm,-,N/A,,Clear,0,2012-10-08 10:53:00
4:53 AM,30.9,23.0,72,29.99,10.0,Calm,Calm,-,N/A,,Clear,0,2012-10-08 11:53:00
5:53 AM,28.0,21.9,78,29.99,10.0,NNW,3.5,-,N/A,,Clear,330,2012-10-08 12:53:00
6:53 AM,28.0,23.0,81,30.00,9.0,Calm,Calm,-,N/A,,Clear,0,2012-10-08 13:53:00
7:53 AM,33.1,26.1,75,30.01,10.0,Calm,Calm,-,N/A,,Clear,0,2012-10-08 14:53:00
8:53 AM,46.0,30.9,56,30.00,10.0,Calm,Calm,-,N/A,,Clear,0,2012-10-08 15:53:00
9:53 AM,48.9,33.1,54,30.00,10.0,Calm,Calm,-,N/A,,Clear,0,2012-10-08 16:53:00
10:53 AM,53.1,28.9,40,29.99,10.0,Variable,3.5,-,N/A,,Clear,0,2012-10-08 17:53:00
11:53 AM,59.0,28.9,32,29.98,10.0,SSE,4.6,-,N/A,,Clear,150,2012-10-08 18:53:00
12:53 PM,63.0,30.0,29,29.95,10.0,SSE,5.8,-,N/A,,Clear,160,2012-10-08 19:53:00
1:53 PM,68.0,25.0,20,29.93,10.0,SW,9.2,-,N/A,,Clear,220,2012-10-08 20:53:00
2:53 PM,69.1,26.1,20,29.91,10.0,WSW,8.1,-,N/A,,Clear,240,2012-10-08 21:53:00
3:53 PM,70.0,27.0,20,29.90,10.0,Calm,Calm,-,N/A,,Clear,0,2012-10-08 22:53:00
4:53 PM,69.1,28.0,22,29.91,10.0,Variable,3.5,-,N/A,,Clear,0,2012-10-08 23:53:00
5:53 PM,64.0,28.9,27,29.91,5.0,Calm,Calm,-,N/A,,Haze,0,2012-10-09 00:53:00
7:53 PM,45.0,27.0,49,29.95,10.0,Calm,Calm,-,N/A,,Clear,0,2012-10-09 02:53:00
8:53 PM,43.0,28.0,56,29.95,10.0,NE,3.5,-,N/A,,Clear,50,2012-10-09 03:53:00
9:53 PM,41.0,28.0,60,29.97,10.0,East,3.5,-,N/A,,Clear,100,2012-10-09 04:53:00
10:53 PM,37.9,27.0,65,29.98,10.0,Calm,Calm,-,N/A,,Clear,0,2012-10-09 05:53:00
11:53 PM,36.0,27.0,70,29.98,10.0,Calm,Calm,-,N/A,,Clear,0,2012-10-09 06:53:00